N9CQS-15 Weather Reports


time (UTC)temp
C
wind
direction
speed
KPH
gust
KPH
rain 1hr
cm
rain 24hr
cm
rain mn
cm
humidity
%
barometer
mb
20260906111902 20 23 4.8 6.4 0.00 0.00 0.00 88 1015.9
20260906110902 20 23 4.8 4.8 0.00 0.00 0.00 89 1015.5
20260906104901 20 23 3.2 4.8 0.00 0.00 0.00 89 1015.2
20260906103902 20 90 3.2 4.8 0.00 0.00 0.00 89 1015.2
20260906102901 21 0 4.8 4.8 0.00 0.00 0.00 89 1015.2
20260906101902 21 23 4.8 4.8 0.00 0.00 0.00 89 1015.2
20260906100901 21 248 3.2 3.2 0.00 0.00 0.00 89 1014.8
20260906094901 21 23 6.4 6.4 0.00 0.00 0.00 89 1014.8
20260906093901 21 0 0.0 3.2 0.00 0.00 0.00 89 1014.8
20260906092902 21 45 3.2 6.4 0.00 0.00 0.00 89 1014.8
20260906091901 21 0 8.0 8.0 0.00 0.00 0.00 89 1014.8
20260906090901 21 23 6.4 6.4 0.00 0.00 0.00 89 1014.8
20260906084902 21 113 4.8 6.4 0.00 0.00 0.00 89 1014.8
20260906083902 21 0 4.8 6.4 0.00 0.00 0.00 89 1014.8
20260906082901 21 23 4.8 6.4 0.00 0.00 0.00 89 1014.8
20260906081902 21 23 4.8 6.4 0.00 0.00 0.00 88 1014.8
20260906080901 21 23 4.8 4.8 0.00 0.00 0.00 88 1014.5
20260906074901 21 23 4.8 6.4 0.00 0.00 0.00 88 1014.5
20260906073901 21 0 6.4 6.4 0.00 0.00 0.00 88 1014.5
20260906072902 21 0 6.4 6.4 0.00 0.00 0.00 88 1014.5
20260906071901 21 23 8.0 8.0 0.00 0.00 0.00 88 1014.8
20260906070902 21 23 6.4 6.4 0.00 0.00 0.00 88 1014.5
20260906070101 21 23 4.8 8.0 0.00 0.00 0.00 88 1014.8
20260906064902 21 23 4.8 8.0 0.00 0.00 0.00 88 1014.8
20260906063902 21 23 6.4 8.0 0.00 0.00 0.00 88 1015.2
20260906062901 21 315 4.8 6.4 0.00 0.00 0.00 88 1015.2
20260906061901 21 315 6.4 6.4 0.00 0.00 0.00 88 1015.2
20260906060901 21 23 4.8 4.8 0.00 0.00 0.00 87 1014.8
20260906054901 21 338 4.8 6.4 0.00 0.00 0.00 87 1014.8
20260906053901 21 293 3.2 6.4 0.00 0.00 0.00 87 1014.5
20260906052902 21 0 6.4 6.4 0.00 0.00 0.00 87 1014.5
20260906051901 21 0 4.8 6.4 0.00 0.00 0.00 87 1014.5
20260906050901 21 338 3.2 3.2 0.00 0.00 0.00 87 1014.5
20260906044902 21 338 4.8 6.4 0.00 0.00 0.00 87 1014.5
20260906043901 21 23 6.4 6.4 0.00 0.00 0.00 87 1014.2
20260906042902 21 23 6.4 6.4 0.00 0.00 0.00 87 1014.2
20260906041902 21 23 3.2 6.4 0.00 0.00 0.00 86 1014.5
20260906040902 21 23 4.8 4.8 0.00 0.00 0.00 86 1014.5
20260906034902 22 0 3.2 9.7 0.00 0.00 0.00 85 1014.2
20260906033901 22 45 6.4 8.0 0.00 0.00 0.00 85 1014.2
20260906032901 22 45 4.8 6.4 0.00 0.00 0.00 84 1014.2
20260906031901 22 23 6.4 6.4 0.00 0.00 0.00 84 1014.2
20260906030902 22 315 9.7 9.7 0.00 0.00 0.00 84 1013.8
20260906024902 23 23 9.7 9.7 0.00 0.00 0.00 83 1013.8
20260906023901 23 45 9.7 11.3 0.00 0.00 0.00 83 1013.8
20260906022902 23 23 6.4 8.0 0.00 0.00 0.00 83 1013.8
20260906021902 23 0 8.0 8.0 0.00 0.00 0.00 83 1013.5
20260906020902 24 23 4.8 4.8 0.00 0.00 0.00 82 1013.5
20260906014901 25 23 4.8 6.4 0.00 0.00 0.00 81 1013.5
20260906013902 25 68 6.4 8.0 0.00 0.00 0.00 80 1013.5
20260906012902 25 23 6.4 9.7 0.00 0.00 0.00 80 1013.2
20260906011901 26 45 3.2 8.0 0.00 0.00 0.00 79 1012.8
20260906010902 26 113 6.4 6.4 0.00 0.00 0.00 78 1012.8
20260906004902 26 23 6.4 9.7 0.00 0.00 0.00 77 1012.5
20260906003901 27 23 6.4 8.0 0.00 0.00 0.00 76 1012.5
20260906002902 27 23 8.0 9.7 0.00 0.00 0.00 76 1012.5
20260906001902 28 0 8.0 8.0 0.00 0.00 0.00 76 1012.5
20260906000902 28 45 6.4 6.4 0.00 0.00 0.00 75 1012.1
20260905234901 30 0 9.7 11.3 0.00 0.00 0.00 73 1012.1
20260905233902 30 45 8.0 8.0 0.00 0.00 0.00 70 1012.1
20260905232901 31 338 6.4 6.4 0.00 0.00 0.00 69 1011.8
20260905231901 31 23 4.8 6.4 0.00 0.00 0.00 69 1011.8
20260905230902 31 23 4.8 4.8 0.00 0.00 0.00 68 1011.8
20260905224901 32 315 4.8 9.7 0.00 0.00 0.00 64 1011.8
20260905223901 32 23 8.0 9.7 0.00 0.00 0.00 64 1011.8
20260905222902 32 338 8.0 9.7 0.00 0.00 0.00 63 1011.5
20260905221902 33 23 6.4 9.7 0.00 0.00 0.00 63 1011.5
20260905220902 33 23 6.4 6.4 0.00 0.00 0.00 63 1011.5
20260905214902 33 0 6.4 11.3 0.00 0.00 0.00 63 1011.5
20260905213902 33 23 6.4 8.0 0.00 0.00 0.00 63 1011.5
20260905212901 33 0 9.7 9.7 0.00 0.00 0.00 62 1011.5
20260905211901 33 23 3.2 8.0 0.00 0.00 0.00 62 1011.5
20260905210902 33 338 4.8 4.8 0.00 0.00 0.00 61 1011.8
20260905204901 34 0 6.4 9.7 0.00 0.00 0.00 60 1011.8
20260905203902 35 293 6.4 6.4 0.00 0.00 0.00 58 1011.8
20260905202902 35 338 4.8 6.4 0.00 0.00 0.00 58 1011.8
20260905201901 34 293 6.4 9.7 0.00 0.00 0.00 57 1011.8
20260905200902 35 315 6.4 6.4 0.00 0.00 0.00 55 1011.8
20260905194902 35 293 4.8 8.0 0.00 0.00 0.00 54 1011.8
20260905193901 35 270 3.2 8.0 0.00 0.00 0.00 56 1012.1
20260905192902 33 293 6.4 8.0 0.00 0.00 0.00 59 1012.1
20260905191901 35 293 9.7 9.7 0.00 0.00 0.00 55 1012.1
20260905190901 35 293 8.0 8.0 0.00 0.00 0.00 54 1012.5
20260905184902 35 23 6.4 6.4 0.00 0.00 0.00 56 1012.5
20260905183901 33 315 4.8 6.4 0.00 0.00 0.00 61 1012.5
20260905182902 33 293 6.4 6.4 0.00 0.00 0.00 59 1012.8
20260905181901 35 293 6.4 8.0 0.00 0.00 0.00 57 1012.8
20260905180901 36 293 6.4 6.4 0.00 0.00 0.00 53 1012.8
20260905174902 36 315 6.4 6.4 0.00 0.00 0.00 53 1012.8
20260905173901 35 293 6.4 9.7 0.00 0.00 0.00 54 1012.8
20260905172902 35 315 6.4 8.0 0.00 0.00 0.00 54 1013.2
20260905171902 35 293 6.4 8.0 0.00 0.00 0.00 56 1013.2
20260905170901 35 270 6.4 6.4 0.00 0.00 0.00 55 1013.2
20260905170101 34 293 8.0 9.7 0.00 0.00 0.00 57 1013.2
20260905164902 35 270 3.2 4.8 0.00 0.00 0.00 60 1013.2
20260905163901 35 203 3.2 6.4 0.00 0.00 0.00 59 1013.2
20260905162902 34 293 6.4 6.4 0.00 0.00 0.00 59 1013.5
20260905161901 33 270 1.6 6.4 0.00 0.00 0.00 64 1013.2
20260905160902 34 225 3.2 3.2 0.00 0.00 0.00 61 1013.5
20260905154902 32 248 3.2 4.8 0.00 0.00 0.00 67 1013.5
20260905153902 32 270 3.2 4.8 0.00 0.00 0.00 66 1013.5
20260905152901 32 293 4.8 4.8 0.00 0.00 0.00 67 1013.2
20260905151902 32 270 3.2 4.8 0.00 0.00 0.00 69 1013.2
20260905150902 31 270 3.2 3.2 0.00 0.00 0.00 67 1013.2
20260905144902 30 225 4.8 4.8 0.00 0.00 0.00 72 1013.2
20260905143901 30 270 3.2 4.8 0.00 0.00 0.00 74 1013.2
20260905142901 29 293 6.4 6.4 0.00 0.00 0.00 75 1013.2
20260905141902 28 203 1.6 4.8 0.00 0.00 0.00 77 1013.2
20260905140901 28 248 3.2 3.2 0.00 0.00 0.00 77 1013.5
20260905134902 27 225 4.8 4.8 0.00 0.00 0.00 77 1013.2
20260905133901 27 203 3.2 4.8 0.00 0.00 0.00 80 1013.2
20260905132902 26 248 1.6 4.8 0.00 0.00 0.00 81 1013.2
20260905131901 26 180 4.8 4.8 0.00 0.00 0.00 81 1013.2
20260905130902 26 180 0.0 0.0 0.00 0.00 0.00 82 1013.5
20260905124901 25 203 0.0 3.2 0.00 0.00 0.00 83 1013.2
20260905123901 25 180 0.0 3.2 0.00 0.00 0.00 83 1013.2
20260905122902 25 180 3.2 3.2 0.00 0.00 0.00 83 1013.2
20260905121901 25 135 0.0 0.0 0.00 0.00 0.00 84 1013.2
20260905120902 25 180 0.0 0.0 0.00 0.00 0.00 85 1013.2
20260905114902 24 180 0.0 0.0 0.00 0.00 0.00 86 1012.8
20260905113901 24 180 0.0 0.0 0.00 0.00 0.00 86 1012.8
20260905112902 24 180 0.0 0.0 0.00 0.00 0.00 86 1012.8